TimeCST,TemperatureF,Dew PointF,Humidity,Sea Level PressureIn,VisibilityMPH,Wind Direction,Wind SpeedMPH,Gust SpeedMPH,PrecipitationIn,Events,Conditions,WindDirDegrees,DateUTC
12:15 AM,59.5,49.3,69,30.28,10.0,ENE,4.6,-,N/A,,Clear,60,2012-11-18 06:15:00
12:35 AM,55.6,47.5,74,30.28,10.0,NE,3.5,-,N/A,,Clear,40,2012-11-18 06:35:00
12:55 AM,56.3,47.8,73,30.27,10.0,NE,4.6,-,N/A,,Clear,50,2012-11-18 06:55:00
1:15 AM,57.0,49.6,76,30.26,10.0,ENE,4.6,-,N/A,,Clear,60,2012-11-18 07:15:00
1:35 AM,57.4,50.7,78,30.25,10.0,ENE,5.8,-,N/A,,Clear,60,2012-11-18 07:35:00
1:55 AM,57.7,50.9,78,30.26,10.0,ENE,5.8,-,N/A,,Clear,60,2012-11-18 07:55:00
2:15 AM,58.1,51.8,80,30.26,10.0,NE,5.8,-,N/A,,Clear,50,2012-11-18 08:15:00
2:35 AM,58.1,52.0,80,30.25,10.0,ENE,5.8,-,N/A,,Clear,60,2012-11-18 08:35:00
2:55 AM,58.8,52.7,80,30.25,10.0,NE,6.9,-,N/A,,Clear,50,2012-11-18 08:55:00
3:15 AM,58.6,52.7,81,30.25,10.0,NE,6.9,-,N/A,,Clear,40,2012-11-18 09:15:00
3:35 AM,57.6,52.0,82,30.25,10.0,NE,5.8,-,N/A,,Clear,50,2012-11-18 09:35:00
3:55 AM,57.4,52.0,82,30.24,10.0,NE,6.9,-,N/A,,Clear,50,2012-11-18 09:55:00
4:15 AM,57.6,51.8,81,30.23,10.0,NE,6.9,-,N/A,,Clear,50,2012-11-18 10:15:00
4:35 AM,57.4,51.8,82,30.23,10.0,NE,6.9,-,N/A,,Clear,50,2012-11-18 10:35:00
5:15 AM,56.8,51.4,82,30.22,10.0,ENE,5.8,-,N/A,,Clear,60,2012-11-18 11:15:00
5:35 AM,56.3,51.3,83,30.23,10.0,ENE,4.6,-,N/A,,Clear,70,2012-11-18 11:35:00
5:55 AM,55.9,51.3,84,30.23,10.0,ENE,5.8,-,N/A,,Clear,60,2012-11-18 11:55:00
6:15 AM,56.7,52.2,85,30.24,10.0,NE,4.6,-,N/A,,Clear,50,2012-11-18 12:15:00
6:35 AM,56.3,51.8,85,30.23,10.0,ENE,5.8,-,N/A,,Clear,70,2012-11-18 12:35:00
6:55 AM,55.4,51.3,86,30.23,10.0,ENE,5.8,-,N/A,,Clear,70,2012-11-18 12:55:00
7:15 AM,56.5,52.3,86,30.24,10.0,NE,4.6,-,N/A,,Clear,50,2012-11-18 13:15:00
7:35 AM,58.3,53.2,83,30.25,10.0,NE,4.6,-,N/A,,Clear,50,2012-11-18 13:35:00
7:55 AM,60.1,54.1,81,30.25,10.0,ENE,8.1,-,N/A,,Clear,60,2012-11-18 13:55:00
8:15 AM,61.7,54.9,78,30.25,10.0,ENE,6.9,-,N/A,,Clear,70,2012-11-18 14:15:00
8:35 AM,63.9,55.8,75,30.25,10.0,ENE,8.1,-,N/A,,Clear,60,2012-11-18 14:35:00
8:55 AM,66.0,56.7,72,30.26,10.0,ENE,9.2,-,N/A,,Clear,60,2012-11-18 14:55:00
9:15 AM,68.0,57.2,68,30.26,10.0,ENE,8.1,-,N/A,,Clear,60,2012-11-18 15:15:00
9:35 AM,70.2,57.4,64,30.27,10.0,East,8.1,-,N/A,,Clear,80,2012-11-18 15:35:00
9:55 AM,71.8,57.4,60,30.27,10.0,ENE,9.2,-,N/A,,Clear,70,2012-11-18 15:55:00
10:15 AM,73.6,57.0,56,30.27,10.0,East,8.1,-,N/A,,Clear,90,2012-11-18 16:15:00
10:35 AM,74.3,55.9,53,30.27,10.0,East,8.1,-,N/A,,Clear,90,2012-11-18 16:35:00
10:55 AM,75.4,55.6,50,30.26,10.0,ESE,11.5,-,N/A,,Scattered Clouds,110,2012-11-18 16:55:00
11:15 AM,76.5,55.4,48,30.25,10.0,ESE,10.4,19.6,N/A,,Mostly Cloudy,120,2012-11-18 17:15:00
11:35 AM,75.4,55.6,50,30.24,10.0,ESE,8.1,-,N/A,,Scattered Clouds,120,2012-11-18 17:35:00
11:55 AM,76.8,55.4,47,30.23,10.0,SE,8.1,-,N/A,,Scattered Clouds,130,2012-11-18 17:55:00
12:15 PM,76.6,54.9,47,30.23,10.0,ESE,13.8,17.3,N/A,,Scattered Clouds,120,2012-11-18 18:15:00
12:35 PM,77.5,54.3,44,30.21,10.0,ESE,12.7,16.1,N/A,,Mostly Cloudy,110,2012-11-18 18:35:00
12:55 PM,78.1,52.9,41,30.19,10.0,East,11.5,18.4,N/A,,Mostly Cloudy,90,2012-11-18 18:55:00
1:15 PM,78.4,52.2,40,30.19,10.0,SE,11.5,-,N/A,,Scattered Clouds,130,2012-11-18 19:15:00
1:35 PM,79.2,52.2,39,30.19,10.0,SE,17.3,20.7,N/A,,Scattered Clouds,130,2012-11-18 19:35:00
1:55 PM,78.3,51.4,39,30.18,10.0,ESE,9.2,-,N/A,,Scattered Clouds,110,2012-11-18 19:55:00
2:15 PM,78.6,51.6,39,30.17,10.0,ESE,12.7,-,N/A,,Clear,110,2012-11-18 20:15:00
2:35 PM,78.1,52.0,40,30.17,10.0,ESE,11.5,18.4,N/A,,Clear,110,2012-11-18 20:35:00
2:55 PM,78.8,51.8,39,30.17,10.0,ESE,16.1,21.9,N/A,,Scattered Clouds,120,2012-11-18 20:55:00
3:15 PM,78.8,52.2,39,30.17,10.0,ESE,13.8,21.9,N/A,,Scattered Clouds,120,2012-11-18 21:15:00
3:35 PM,77.0,52.7,43,30.17,10.0,SE,16.1,20.7,N/A,,Scattered Clouds,130,2012-11-18 21:35:00
3:55 PM,76.1,53.1,45,30.18,10.0,ESE,13.8,19.6,N/A,,Scattered Clouds,120,2012-11-18 21:55:00
4:15 PM,75.2,53.6,47,30.18,10.0,SE,15.0,-,N/A,,Scattered Clouds,130,2012-11-18 22:15:00
4:35 PM,75.2,53.6,47,30.18,10.0,ESE,15.0,18.4,N/A,,Mostly Cloudy,120,2012-11-18 22:35:00
4:55 PM,75.2,54.1,48,30.19,10.0,SE,13.8,-,N/A,,Overcast,130,2012-11-18 22:55:00
5:15 PM,74.3,54.5,50,30.19,10.0,ESE,15.0,-,N/A,,Mostly Cloudy,120,2012-11-18 23:15:00
5:35 PM,73.0,54.7,52,30.19,10.0,ESE,13.8,-,N/A,,Scattered Clouds,120,2012-11-18 23:35:00
5:55 PM,72.1,54.5,54,30.19,10.0,ESE,10.4,-,N/A,,Clear,120,2012-11-18 23:55:00
6:15 PM,71.6,54.5,55,30.20,10.0,ESE,9.2,-,N/A,,Clear,120,2012-11-19 00:15:00
6:35 PM,70.5,54.1,56,30.20,10.0,ESE,8.1,-,N/A,,Clear,110,2012-11-19 00:35:00
6:55 PM,69.8,54.5,58,30.22,10.0,ESE,8.1,-,N/A,,Clear,110,2012-11-19 00:55:00
7:15 PM,68.9,54.5,60,30.22,10.0,East,6.9,-,N/A,,Clear,100,2012-11-19 01:15:00
7:35 PM,68.0,54.1,61,30.22,10.0,East,5.8,-,N/A,,Clear,100,2012-11-19 01:35:00
7:55 PM,66.9,53.8,63,30.23,10.0,East,5.8,-,N/A,,Clear,100,2012-11-19 01:55:00
8:15 PM,66.6,54.7,66,30.22,10.0,ESE,8.1,-,N/A,,Clear,110,2012-11-19 02:15:00
8:35 PM,66.2,55.4,68,30.22,10.0,East,6.9,-,N/A,,Clear,100,2012-11-19 02:35:00
8:55 PM,66.2,55.4,68,30.23,10.0,East,6.9,-,N/A,,Clear,100,2012-11-19 02:55:00
9:15 PM,65.3,55.2,70,30.23,10.0,East,6.9,-,N/A,,Clear,100,2012-11-19 03:15:00
9:35 PM,65.3,55.4,70,30.23,10.0,East,5.8,-,N/A,,Clear,100,2012-11-19 03:35:00
9:55 PM,64.8,55.4,72,30.23,10.0,East,5.8,-,N/A,,Clear,80,2012-11-19 03:55:00
10:15 PM,64.2,55.2,73,30.23,10.0,East,4.6,-,N/A,,Clear,90,2012-11-19 04:15:00
10:35 PM,63.7,55.2,74,30.23,10.0,East,4.6,-,N/A,,Clear,100,2012-11-19 04:35:00
10:55 PM,64.0,55.6,74,30.23,10.0,East,3.5,-,N/A,,Clear,90,2012-11-19 04:55:00
11:15 PM,64.6,57.2,77,30.23,10.0,East,4.6,-,N/A,,Clear,90,2012-11-19 05:15:00
11:35 PM,63.0,55.6,77,30.23,10.0,East,3.5,-,N/A,,Clear,80,2012-11-19 05:35:00
11:55 PM,63.0,56.3,79,30.22,10.0,East,3.5,-,N/A,,Clear,100,2012-11-19 05:55:00